Location: Roanoke
(37.2710°N, 79.9420°W)
Time: 21:35:10
(UTC-05:00)

Courier 1B Rocket - Pass Details

Date: 25 November 2019
Orbit: 920 x 1202 km, 28.2° (Epoch: 05 December)

Event Time Altitude Azimuth Distance (km) Brightness Sun altitude
Rises 14:18:01 0° 251° (WSW) 3,639 8.8 24.2°
Reaches altitude 10° 14:20:45 10° 244° (WSW) 2,728 8.5 23.9°
Maximum altitude 14:26:50 39° 177° (S) 1,484 7.0 23.2°
Drops below altitude 10° 14:33:21 10° 111° (ESE) 2,918 7.4 22.4°
Sets 14:36:22 0° 104° (ESE) 3,920 7.9 22.1°
